When you browse on this site, cookies collect data to enhance your experience and personalize the content and advertising you see.
Visit our Privacy Policy to learn more. By continuing to use the site, you agree to this use of cookies and data.
  • In Spain
  • List of Countries
  • For 7 days
  • Water Temperature
  • Satellite Maps
  • Weather Map
  • Weather Widgets
  • user-avatar
    Login

    Hourly Weather La Rioja

    Today, 19 December, Wednesday

    Time Temperature Precipitation Wind Pressure Humidity
    00:00 +25°C° 0.1 mm 2 mps 715 mmHg 72%
    01:00 +24°C° 0.1 mm 2 mps 715 mmHg 75%
    02:00 +24°C° 0.1 mm 2 mps 714 mmHg 78%
    03:00 +24°C° 0 mm 2 mps 714 mmHg 79%
    04:00 +23°C° 0 mm 2 mps 714 mmHg 81%
    05:00 +23°C° 0 mm 2 mps 713 mmHg 82%
    06:00 +23°C° 0.3 mm 2 mps 713 mmHg 79%
    07:00 +24°C° 0.3 mm 2 mps 714 mmHg 77%
    08:00 +24°C° 0.3 mm 2 mps 714 mmHg 74%
    09:00 +26°C° 0.4 mm 2 mps 713 mmHg 66%
    10:00 +28°C° 0.4 mm 2 mps 713 mmHg 58%
    11:00 +29°C° 0.4 mm 2 mps 713 mmHg 50%
    12:00 +31°C° 0.3 mm 2 mps 712 mmHg 45%
    13:00 +33°C° 0.3 mm 3 mps 711 mmHg 40%
    14:00 +34°C° 0.3 mm 3 mps 711 mmHg 36%
    15:00 +35°C° 0 mm 3 mps 710 mmHg 34%
    16:00 +35°C° 0 mm 3 mps 710 mmHg 32%
    17:00 +35°C° 0 mm 3 mps 709 mmHg 31%
    18:00 +34°C° 0 mm 3 mps 709 mmHg 34%
    19:00 +33°C° 0 mm 3 mps 710 mmHg 37%
    20:00 +31°C° 0 mm 3 mps 710 mmHg 40%
    21:00 +30°C° 0 mm 3 mps 710 mmHg 45%
    22:00 +30°C° 0 mm 2 mps 711 mmHg 50%
    23:00 +29°C° 0 mm 2 mps 711 mmHg 56%

    Tomorrow, 20 December, Thursday

    Time Temperature Precipitation Wind Pressure Humidity
    00:00 +28°C° 0 mm 2 mps 711 mmHg 59%
    01:00 +27°C° 0 mm 2 mps 710 mmHg 62%
    02:00 +27°C° 0 mm 1 mps 709 mmHg 65%
    03:00 +26°C° 0 mm 1 mps 709 mmHg 65%
    04:00 +26°C° 0 mm 1 mps 709 mmHg 66%
    05:00 +26°C° 0 mm 1 mps 709 mmHg 67%
    06:00 +26°C° 0 mm 2 mps 710 mmHg 65%
    07:00 +27°C° 0 mm 3 mps 711 mmHg 63%
    08:00 +28°C° 0 mm 4 mps 711 mmHg 62%
    09:00 +29°C° 0.1 mm 3 mps 711 mmHg 58%
    10:00 +30°C° 0.1 mm 3 mps 711 mmHg 55%
    11:00 +31°C° 0.1 mm 3 mps 711 mmHg 52%
    12:00 +33°C° 0.1 mm 3 mps 710 mmHg 47%
    13:00 +34°C° 0.1 mm 4 mps 710 mmHg 41%
    14:00 +35°C° 0.1 mm 4 mps 709 mmHg 36%
    15:00 +36°C° 0 mm 4 mps 709 mmHg 36%
    16:00 +36°C° 0 mm 5 mps 709 mmHg 35%
    17:00 +36°C° 0 mm 5 mps 709 mmHg 34%
    18:00 +34°C° 0.8 mm 5 mps 710 mmHg 40%
    19:00 +33°C° 0.8 mm 5 mps 711 mmHg 46%
    20:00 +32°C° 0.8 mm 5 mps 712 mmHg 51%
    21:00 +30°C° 2.6 mm 4 mps 713 mmHg 55%
    22:00 +28°C° 2.6 mm 4 mps 714 mmHg 59%
    23:00 +27°C° 2.6 mm 3 mps 715 mmHg 63%

    Day after tomorrow, 21 December, Friday

    Time Temperature Precipitation Wind Pressure Humidity
    00:00 +27°C° 1.2 mm 4 mps 715 mmHg 62%
    01:00 +26°C° 1.2 mm 5 mps 715 mmHg 61%
    02:00 +26°C° 1.2 mm 5 mps 715 mmHg 60%
    03:00 +26°C° 0.2 mm 4 mps 715 mmHg 58%
    04:00 +25°C° 0.2 mm 4 mps 716 mmHg 57%
    05:00 +25°C° 0.2 mm 3 mps 716 mmHg 56%
    06:00 +25°C° 0.1 mm 3 mps 716 mmHg 52%
    07:00 +26°C° 0.1 mm 3 mps 716 mmHg 49%
    08:00 +26°C° 0.1 mm 2 mps 716 mmHg 45%
    09:00 +27°C° 0 mm 2 mps 716 mmHg 41%
    10:00 +28°C° 0 mm 2 mps 715 mmHg 37%
    11:00 +29°C° 0 mm 2 mps 715 mmHg 32%
    12:00 +30°C° 0 mm 2 mps 714 mmHg 31%
    13:00 +31°C° 0 mm 2 mps 713 mmHg 29%
    14:00 +33°C° 0 mm 3 mps 712 mmHg 27%
    15:00 +34°C° 0 mm 3 mps 712 mmHg 27%
    16:00 +34°C° 0 mm 3 mps 711 mmHg 27%
    17:00 +34°C° 0 mm 4 mps 711 mmHg 27%
    18:00 +33°C° 0 mm 3 mps 711 mmHg 29%
    19:00 +31°C° 0 mm 3 mps 712 mmHg 31%
    20:00 +30°C° 0 mm 3 mps 712 mmHg 33%
    21:00 +30°C° 0 mm 2 mps 713 mmHg 35%
    22:00 +29°C° 0 mm 2 mps 714 mmHg 37%
    23:00 +28°C° 0 mm 2 mps 714 mmHg 39%

    22 December, Saturday

    Time Temperature Precipitation Wind Pressure Humidity
    00:00 +28°C° 0 mm 2 mps 714 mmHg 41%
    01:00 +27°C° 0 mm 1 mps 714 mmHg 44%
    02:00 +26°C° 0 mm 1 mps 713 mmHg 46%
    03:00 +26°C° 0 mm 1 mps 713 mmHg 48%
    04:00 +26°C° 0 mm 1 mps 713 mmHg 49%
    05:00 +25°C° 0 mm 1 mps 713 mmHg 51%
    06:00 +26°C° 0 mm 1 mps 714 mmHg 47%
    07:00 +27°C° 0 mm 1 mps 714 mmHg 43%
    08:00 +29°C° 0 mm 1 mps 715 mmHg 39%
    09:00 +30°C° 0 mm 2 mps 715 mmHg 36%
    10:00 +31°C° 0 mm 2 mps 714 mmHg 33%
    11:00 +32°C° 0 mm 2 mps 714 mmHg 31%
    12:00 +34°C° 0 mm 3 mps 713 mmHg 29%
    13:00 +35°C° 0 mm 3 mps 713 mmHg 28%
    14:00 +36°C° 0 mm 4 mps 712 mmHg 26%
    15:00 +36°C° 0 mm 4 mps 712 mmHg 27%
    16:00 +36°C° 0 mm 5 mps 711 mmHg 27%
    17:00 +36°C° 0 mm 5 mps 711 mmHg 28%
    18:00 +35°C° 0 mm 5 mps 711 mmHg 32%
    19:00 +34°C° 0 mm 5 mps 712 mmHg 36%
    20:00 +33°C° 0 mm 4 mps 713 mmHg 40%
    21:00 +32°C° 0.4 mm 4 mps 713 mmHg 44%
    22:00 +30°C° 0.4 mm 3 mps 714 mmHg 47%
    23:00 +29°C° 0.4 mm 2 mps 715 mmHg 50%

    23 December, Sunday

    Time Temperature Precipitation Wind Pressure Humidity
    00:00 +29°C° 0.3 mm 2 mps 714 mmHg 52%
    01:00 +28°C° 0.3 mm 2 mps 714 mmHg 53%
    02:00 +28°C° 0.3 mm 1 mps 714 mmHg 54%
    03:00 +27°C° 0.1 mm 1 mps 714 mmHg 55%
    04:00 +27°C° 0.1 mm 1 mps 714 mmHg 56%
    05:00 +27°C° 0.1 mm 1 mps 715 mmHg 57%
    06:00 +27°C° 0 mm 1 mps 715 mmHg 53%
    07:00 +28°C° 0 mm 1 mps 716 mmHg 49%
    08:00 +29°C° 0 mm 1 mps 716 mmHg 46%
    09:00 +30°C° 0 mm 2 mps 716 mmHg 43%
    10:00 +32°C° 0 mm 2 mps 716 mmHg 40%
    11:00 +34°C° 0 mm 2 mps 715 mmHg 37%
    12:00 +35°C° 0.3 mm 3 mps 715 mmHg 35%
    13:00 +36°C° 0.3 mm 3 mps 714 mmHg 32%
    14:00 +37°C° 0.3 mm 4 mps 714 mmHg 30%
    15:00 +37°C° 0.5 mm 5 mps 713 mmHg 30%
    16:00 +37°C° 0.5 mm 5 mps 713 mmHg 30%
    17:00 +38°C° 0.5 mm 6 mps 713 mmHg 30%
    18:00 +36°C° 0.2 mm 6 mps 713 mmHg 33%
    19:00 +34°C° 0.2 mm 5 mps 713 mmHg 37%
    20:00 +33°C° 0.2 mm 4 mps 714 mmHg 40%
    21:00 +32°C° 0.2 mm 4 mps 714 mmHg 43%
    22:00 +30°C° 0.2 mm 3 mps 715 mmHg 46%
    23:00 +29°C° 0.2 mm 3 mps 715 mmHg 49%

    24 December, Monday

    Time Temperature Precipitation Wind Pressure Humidity
    00:00 +29°C° 0 mm 3 mps 715 mmHg 52%
    01:00 +28°C° 0 mm 2 mps 715 mmHg 55%
    02:00 +27°C° 0 mm 2 mps 714 mmHg 57%
    03:00 +27°C° 0 mm 2 mps 714 mmHg 59%
    04:00 +26°C° 0 mm 2 mps 715 mmHg 61%
    05:00 +26°C° 0 mm 1 mps 715 mmHg 62%
    06:00 +27°C° 0 mm 1 mps 715 mmHg 58%
    07:00 +28°C° 0 mm 1 mps 715 mmHg 55%
    08:00 +28°C° 0 mm 2 mps 716 mmHg 51%
    09:00 +30°C° 0 mm 2 mps 715 mmHg 47%
    10:00 +31°C° 0 mm 2 mps 715 mmHg 43%
    11:00 +32°C° 0 mm 2 mps 715 mmHg 39%
    12:00 +34°C° 0 mm 3 mps 714 mmHg 36%
    13:00 +35°C° 0 mm 3 mps 713 mmHg 33%
    14:00 +37°C° 0 mm 4 mps 712 mmHg 30%
    15:00 +37°C° 0 mm 4 mps 712 mmHg 30%
    16:00 +37°C° 0 mm 5 mps 711 mmHg 30%
    17:00 +37°C° 0 mm 5 mps 711 mmHg 29%
    18:00 +36°C° 0 mm 5 mps 711 mmHg 33%
    19:00 +35°C° 0 mm 5 mps 712 mmHg 36%
    20:00 +33°C° 0 mm 5 mps 712 mmHg 40%
    21:00 +32°C° 0 mm 4 mps 712 mmHg 42%
    22:00 +32°C° 0 mm 4 mps 713 mmHg 45%
    23:00 +30°C° 0 mm 3 mps 713 mmHg 47%
    Show more